GW5874 Weather Reports


Display with metric or nautical units.
time (UTC)temp
F
wind
direction
speed
MPH
gust
MPH
rain 1hr
in
rain 24hr
in
rain mn
in
humidity
%
barometer
mb
20260506195119 61 80 4.0 7.0 0.00 0.00 0.00 51 1016.7
20260506194616 60 148 6.0 7.0 0.00 0.00 0.00 55 1016.8
20260506194113 60 209 0.0 1.0 0.00 0.00 0.00 54 1016.6
20260506193611 61 76 1.0 1.0 0.00 0.00 0.00 54 1016.8
20260506193108 61 341 3.0 5.0 0.00 0.00 0.00 52 1016.7
20260506192604 62 266 3.0 4.0 0.00 0.00 0.00 51 1016.8
20260506192100 61 287 5.0 7.0 0.00 0.00 0.00 51 1016.7
20260506191557 61 176 7.0 10.0 0.00 0.00 0.00 52 1017.0
20260506191053 61 179 6.0 10.0 0.00 0.00 0.00 50 1017.0
20260506190550 62 299 5.0 7.0 0.00 0.00 0.00 57 1016.8
20260506190047 61 246 2.0 3.0 0.00 0.00 0.00 54 1016.8
20260506185544 61 124 3.0 5.0 0.00 0.00 0.00 62 1016.9
20260506185041 60 74 1.0 1.0 0.00 0.00 0.00 55 1017.1
20260506184538 60 101 5.0 5.0 0.00 0.00 0.00 54 1017.0
20260506184036 59 178 2.0 3.0 0.00 0.00 0.00 54 1017.3
20260506183531 59 286 3.0 4.0 0.00 0.00 0.00 56 1017.1
20260506183028 59 249 3.0 4.0 0.00 0.00 0.00 54 1017.3
20260506182526 59 333 4.0 7.0 0.00 0.00 0.00 58 1017.5
20260506182023 60 308 3.0 4.0 0.00 0.00 0.00 56 1017.5
20260506181521 59 277 1.0 3.0 0.00 0.00 0.00 59 1018.0
20260506181017 59 2 1.0 1.0 0.00 0.00 0.00 58 1018.1
20260506180514 59 255 2.0 3.0 0.00 0.00 0.00 58 1018.0
20260506180010 59 59 0.0 1.0 0.00 0.00 0.00 58 1018.1
20260506175507 58 297 3.0 4.0 0.00 0.00 0.00 59 1018.2
20260506175003 58 299 3.0 4.0 0.00 0.00 0.00 57 1018.3
20260506174502 59 358 4.0 5.0 0.00 0.00 0.00 61 1018.3
20260506173957 58 287 1.0 3.0 0.00 0.00 0.00 57 1018.3
20260506173456 58 168 4.0 4.0 0.00 0.00 0.00 61 1018.2
20260506172952 58 128 5.0 7.0 0.00 0.00 0.00 56 1018.3
20260506172450 59 23 5.0 7.0 0.00 0.00 0.00 59 1018.3
20260506171945 59 166 2.0 3.0 0.00 0.00 0.00 56 1018.2
20260506171443 61 261 4.0 5.0 0.00 0.00 0.00 54 1018.2
20260506170941 60 257 3.0 4.0 0.00 0.00 0.00 55 1018.2
20260506170437 60 185 2.0 3.0 0.00 0.00 0.00 54 1018.3
20260506165936 60 61 2.0 3.0 0.00 0.00 0.00 57 1018.3
20260506165434 58 227 2.0 3.0 0.00 0.00 0.00 58 1018.4
20260506164930 57 86 6.0 7.0 0.00 0.00 0.00 59 1018.4
20260506164427 58 74 5.0 5.0 0.00 0.00 0.00 59 1018.5
20260506163920 58 202 3.0 4.0 0.00 0.00 0.00 57 1018.1
20260506163420 57 347 2.0 3.0 0.00 0.00 0.00 59 1018.1
20260506162915 57 342 4.0 5.0 0.00 0.00 0.00 61 1018.0
20260506162413 57 16 3.0 4.0 0.00 0.00 0.00 59 1018.0
20260506161910 56 97 5.0 5.0 0.00 0.00 0.00 62 1017.8
20260506161408 55 86 3.0 4.0 0.00 0.00 0.00 62 1017.5
20260506160905 56 180 3.0 4.0 0.00 0.00 0.00 66 1017.3
20260506160402 56 93 8.0 10.0 0.00 0.00 0.00 60 1017.1
20260506155900 55 146 2.0 3.0 0.00 0.00 0.00 66 1016.9
20260506155356 55 351 5.0 10.0 0.00 0.00 0.00 63 1017.1
20260506153513 53 207 5.0 7.0 0.00 0.00 0.00 68 1017.3
20260506153011 54 178 3.0 4.0 0.00 0.00 0.00 68 1017.6
20260506152508 53 174 4.0 4.0 0.00 0.00 0.00 71 1017.5
20260506152006 53 340 1.0 3.0 0.00 0.00 0.00 68 1017.4
20260506151503 53 53 3.0 4.0 0.00 0.00 0.00 68 1017.3
20260506151000 52 101 4.0 5.0 0.00 0.00 0.00 69 1017.2
20260506150456 52 133 7.0 8.0 0.00 0.00 0.00 68 1017.2
20260506145953 52 184 6.0 7.0 0.00 0.00 0.00 69 1017.1
20260506145450 52 134 4.0 5.0 0.00 0.00 0.00 70 1017.0
20260506144948 51 197 1.0 3.0 0.00 0.00 0.00 75 1017.0
20260506144444 51 74 4.0 4.0 0.00 0.00 0.00 72 1017.0
20260506143942 51 184 4.0 5.0 0.00 0.00 0.00 73 1017.2
20260506143439 50 119 3.0 4.0 0.00 0.00 0.00 74 1017.0
20260506142937 50 225 7.0 10.0 0.00 0.00 0.00 72 1017.3
20260506142435 50 95 4.0 5.0 0.00 0.00 0.00 77 1017.1
20260506141933 50 72 2.0 3.0 0.00 0.00 0.00 76 1017.2
20260506141430 49 40 1.0 1.0 0.00 0.00 0.00 77 1017.5
20260506140929 50 222 1.0 1.0 0.00 0.00 0.00 78 1017.5
20260506140425 50 244 4.0 7.0 0.00 0.00 0.00 79 1017.5
20260506135922 50 182 2.0 3.0 0.00 0.00 0.00 78 1017.4
20260506135420 49 56 1.0 1.0 0.00 0.00 0.00 79 1017.2
20260506134915 49 159 7.0 10.0 0.00 0.00 0.00 78 1017.5
20260506134412 49 99 2.0 5.0 0.00 0.00 0.00 81 1017.2
20260506133909 48 83 3.0 4.0 0.00 0.00 0.00 80 1017.1
20260506133405 48 53 4.0 5.0 0.00 0.00 0.00 82 1017.5
20260506132902 48 280 2.0 3.0 0.00 0.00 0.00 82 1017.2
20260506132359 48 28 2.0 3.0 0.00 0.00 0.00 82 1017.3
20260506131857 48 321 5.0 7.0 0.00 0.00 0.00 84 1017.2
20260506131353 48 108 4.0 7.0 0.00 0.00 0.00 84 1017.2
20260506130851 48 280 2.0 3.0 0.00 0.00 0.00 84 1017.2
20260506130347 48 296 2.0 3.0 0.00 0.00 0.00 86 1017.2
20260506125845 47 349 0.0 1.0 0.00 0.00 0.00 86 1017.0
20260506125343 47 328 3.0 4.0 0.00 0.00 0.00 87 1016.9
20260506124841 47 21 2.0 3.0 0.00 0.00 0.00 86 1016.6
20260506124337 47 61 5.0 7.0 0.00 0.00 0.00 86 1016.7
20260506123835 47 286 2.0 3.0 0.00 0.00 0.00 86 1016.6
20260506123334 47 117 3.0 5.0 0.00 0.00 0.00 86 1017.0
20260506122830 47 352 2.0 3.0 0.00 0.00 0.00 87 1016.7
20260506122327 47 205 2.0 3.0 0.00 0.00 0.00 87 1016.7
20260506121826 46 274 1.0 3.0 0.00 0.00 0.00 88 1016.6
20260506121322 46 280 3.0 4.0 0.00 0.00 0.00 89 1016.9
20260506120819 46 308 0.0 1.0 0.00 0.00 0.00 89 1017.0
20260506120317 46 201 0.0 1.0 0.00 0.00 0.00 89 1017.1
20260506115814 46 358 1.0 1.0 0.00 0.00 0.00 89 1017.2
20260506115313 46 3 4.0 5.0 0.00 0.00 0.00 89 1016.9
20260506114810 46 123 3.0 4.0 0.00 0.00 0.00 89 1016.7
20260506114308 46 57 3.0 4.0 0.00 0.00 0.00 89 1016.6
20260506113806 46 106 4.0 8.0 0.00 0.00 0.00 89 1016.6
20260506113303 46 216 1.0 1.0 0.00 0.00 0.00 90 1016.6
20260506112800 46 20 1.0 3.0 0.00 0.00 0.00 89 1016.5
20260506112257 46 213 1.0 1.0 0.00 0.00 0.00 90 1016.6
20260506111754 46 275 0.0 0.0 0.00 0.00 0.00 90 1016.5
20260506111252 46 189 1.0 3.0 0.00 0.00 0.00 90 1016.2
20260506110749 46 262 2.0 4.0 0.00 0.00 0.00 89 1016.3
20260506110247 46 301 4.0 4.0 0.00 0.00 0.00 89 1016.1
20260506105743 46 202 0.0 1.0 0.00 0.00 0.00 89 1015.8
20260506105240 46 235 1.0 1.0 0.00 0.00 0.00 89 1015.9
20260506104738 46 214 1.0 1.0 0.00 0.00 0.00 89 1015.7
20260506104235 46 305 1.0 1.0 0.00 0.00 0.00 89 1015.5
20260506103732 46 268 0.0 0.0 0.00 0.00 0.00 89 1015.6
20260506103230 46 301 1.0 1.0 0.00 0.00 0.00 89 1015.6
20260506102727 46 241 1.0 1.0 0.00 0.00 0.00 89 1015.5
20260506102225 46 337 2.0 3.0 0.00 0.00 0.00 88 1015.4
20260506101721 46 308 3.0 4.0 0.00 0.00 0.00 88 1014.9
20260506101218 46 273 0.0 0.0 0.00 0.00 0.00 88 1014.7
20260506100716 46 230 1.0 1.0 0.00 0.00 0.00 88 1014.5
20260506100214 46 254 2.0 3.0 0.00 0.00 0.00 88 1014.5
20260506095712 46 309 2.0 3.0 0.00 0.00 0.00 88 1014.1
20260506095209 46 354 1.0 1.0 0.00 0.00 0.00 88 1014.2
20260506094706 46 233 1.0 1.0 0.00 0.00 0.00 87 1014.2
20260506094204 46 276 3.0 4.0 0.00 0.00 0.00 87 1014.3
20260506093703 46 121 1.0 3.0 0.00 0.00 0.00 88 1014.4
20260506093159 46 208 1.0 1.0 0.00 0.00 0.00 88 1014.2
20260506092657 46 277 0.0 0.0 0.00 0.00 0.00 88 1014.3
20260506092154 46 44 1.0 3.0 0.00 0.00 0.00 88 1014.4
20260506091652 46 286 0.0 1.0 0.00 0.00 0.00 87 1014.1
20260506091149 46 280 1.0 1.0 0.00 0.00 0.00 86 1013.9
20260506090647 46 10 2.0 3.0 0.00 0.00 0.00 86 1013.4
20260506090143 46 65 0.0 0.0 0.00 0.00 0.00 86 1013.4
20260506085640 46 355 3.0 4.0 0.00 0.00 0.00 85 1013.4
20260506085136 46 290 0.0 1.0 0.00 0.00 0.00 85 1013.5
20260506084633 46 197 1.0 1.0 0.00 0.00 0.00 86 1013.3
20260506084130 46 311 0.0 1.0 0.00 0.00 0.00 86 1013.4
20260506083627 47 205 1.0 1.0 0.00 0.00 0.00 87 1013.3
20260506083124 47 203 0.0 1.0 0.00 0.00 0.00 85 1013.5
20260506082621 46 222 1.0 1.0 0.00 0.00 0.00 85 1013.5
20260506082116 47 227 3.0 4.0 0.00 0.00 0.00 85 1013.2
20260506081615 47 226 0.0 1.0 0.00 0.00 0.00 85 1013.3
20260506081112 47 105 2.0 3.0 0.00 0.00 0.00 85 1013.5
20260506080610 47 98 2.0 3.0 0.00 0.00 0.00 85 1013.7
20260506080106 47 275 1.0 1.0 0.00 0.00 0.00 85 1013.2
20260506073049 47 351 3.0 3.0 0.00 0.00 0.00 86 1012.4
20260506072547 47 74 3.0 5.0 0.00 0.00 0.00 85 1012.8
20260506072044 47 58 2.0 3.0 0.00 0.00 0.00 86 1012.7
20260506071542 47 189 3.0 4.0 0.00 0.00 0.00 85 1012.6
20260506071040 47 152 1.0 1.0 0.00 0.00 0.00 86 1012.7
20260506070536 47 211 1.0 1.0 0.00 0.00 0.00 85 1013.0
20260506062514 47 277 3.0 5.0 0.00 0.00 0.00 88 1012.8
20260506062011 47 96 7.0 11.0 0.00 0.00 0.00 90 1012.7
20260506061506 47 322 2.0 5.0 0.00 0.00 0.00 92 1012.7
20260506061004 47 282 0.0 1.0 0.00 0.00 0.00 92 1013.2
20260506060503 46 335 1.0 1.0 0.00 0.00 0.00 93 1013.5
20260506050931 47 260 1.0 1.0 0.00 0.00 0.00 91 1013.7
20260506050429 47 255 0.0 0.0 0.00 0.00 0.00 91 1013.5
20260506044919 47 226 0.0 1.0 0.00 0.85 0.85 91 1013.4
20260506044418 47 271 1.0 1.0 0.00 0.85 0.85 91 1013.2
20260506043914 47 289 0.0 0.0 0.00 0.85 0.85 91 1013.1
20260506043412 47 354 5.0 5.0 0.00 0.85 0.85 91 1013.1
20260506042909 47 256 0.0 0.0 0.00 0.85 0.85 91 1013.2
20260506042409 47 118 5.0 10.0 0.00 0.85 0.85 91 1013.0
20260506041906 47 231 0.0 1.0 0.00 0.85 0.85 91 1013.0
20260506041403 47 181 0.0 1.0 0.00 0.85 0.85 91 1013.0
20260506040900 47 347 3.0 5.0 0.00 0.85 0.85 91 1012.4
20260506040358 47 213 2.0 3.0 0.00 0.85 0.85 91 1012.5
20260506035854 47 277 2.0 3.0 0.00 0.85 0.85 90 1012.4
20260506035351 47 271 2.0 3.0 0.00 0.85 0.85 90 1012.4
20260506034849 47 267 2.0 5.0 0.00 0.85 0.85 90 1012.4
20260506034346 48 97 3.0 4.0 0.00 0.85 0.85 90 1012.3
20260506033842 48 168 4.0 4.0 0.00 0.85 0.85 90 1012.1
20260506033339 47 184 0.0 1.0 0.00 0.85 0.85 90 1012.3
20260506032836 47 18 3.0 3.0 0.00 0.85 0.85 90 1012.2
20260506032333 47 340 5.0 5.0 0.00 0.85 0.85 90 1012.1
20260506031830 47 324 3.0 4.0 0.00 0.85 0.85 91 1012.0
20260506031327 47 108 1.0 3.0 0.00 0.85 0.85 91 1011.7
20260506030825 47 50 3.0 5.0 0.00 0.85 0.85 91 1011.9
20260506030323 47 48 2.0 3.0 0.00 0.85 0.85 91 1011.7
20260506025819 47 245 3.0 5.0 0.00 0.85 0.85 91 1011.6
20260506025315 47 231 1.0 1.0 0.00 0.85 0.85 90 1011.9
20260506024813 47 24 2.0 3.0 0.00 0.85 0.85 90 1011.6
20260506024310 47 183 3.0 4.0 0.00 0.85 0.85 90 1011.6
20260506023806 47 354 4.0 5.0 0.00 0.85 0.85 90 1011.4
20260506023303 47 335 2.0 3.0 0.00 0.85 0.85 90 1011.3
20260506022759 47 303 2.0 3.0 0.00 0.85 0.85 90 1011.1
20260506022257 47 57 1.0 3.0 0.00 0.85 0.85 90 1010.9
20260506021755 47 342 2.0 4.0 0.00 0.85 0.85 90 1010.9
20260506021252 47 335 2.0 4.0 0.00 0.85 0.85 90 1010.9
20260506020748 47 305 1.0 3.0 0.00 0.85 0.85 90 1010.9
20260506020246 47 163 0.0 1.0 0.00 0.85 0.85 91 1010.7
20260506015744 47 58 2.0 4.0 0.00 0.85 0.85 91 1010.7
20260506015241 47 163 2.0 3.0 0.00 0.85 0.85 92 1010.8
20260506014738 47 107 2.0 3.0 0.00 0.85 0.85 91 1010.6
20260506014234 47 38 2.0 4.0 0.00 0.85 0.85 91 1010.8
20260506013732 47 336 2.0 3.0 0.00 0.85 0.85 91 1010.6
20260506013229 47 339 3.0 5.0 0.00 0.85 0.85 91 1010.5
20260506012725 47 21 4.0 4.0 0.00 0.85 0.85 92 1010.4
20260506012222 47 287 3.0 4.0 0.00 0.85 0.85 92 1010.2
20260506011719 47 250 1.0 1.0 0.00 0.85 0.85 92 1010.5
20260506011215 47 260 0.0 1.0 0.00 0.85 0.85 92 1010.1
20260506010714 47 249 3.0 4.0 0.00 0.85 0.85 92 1010.1
20260506010211 47 297 0.0 0.0 0.00 0.85 0.85 92 1010.4
20260506005708 47 212 1.0 1.0 0.00 0.85 0.85 92 1010.3
20260506005205 47 217 0.0 1.0 0.00 0.85 0.85 92 1010.0
20260506004700 47 281 5.0 8.0 0.00 0.85 0.85 92 1009.9
20260506004159 47 222 3.0 5.0 0.00 0.85 0.85 92 1010.0
20260506003654 48 323 2.0 3.0 0.00 0.85 0.85 91 1009.7
20260506003151 48 263 1.0 3.0 0.00 0.85 0.85 91 1009.9
20260506002646 48 319 3.0 5.0 0.00 0.85 0.85 90 1010.0
20260506002143 48 279 2.0 3.0 0.00 0.85 0.85 90 1010.0
20260506001638 48 132 8.0 10.0 0.00 0.85 0.85 90 1010.0
20260506001136 48 254 2.0 3.0 0.00 0.85 0.85 90 1009.7
20260506000633 48 87 2.0 3.0 0.00 0.85 0.85 89 1009.9
20260506000131 48 41 4.0 5.0 0.00 0.85 0.85 88 1010.0
20260505235629 48 62 3.0 4.0 0.00 0.85 0.85 88 1009.9
20260505235125 48 2 3.0 4.0 0.00 0.85 0.85 89 1009.9
20260505234622 48 47 6.0 10.0 0.00 0.85 0.85 88 1009.4
20260505234119 48 117 8.0 12.0 0.00 0.85 0.85 88 1009.6
20260505233617 48 254 0.0 1.0 0.00 0.85 0.85 88 1009.4
20260505233114 48 192 2.0 3.0 0.00 0.85 0.85 88 1009.5
20260505232612 48 64 7.0 11.0 0.00 0.85 0.85 87 1009.1
20260505232109 48 12 5.0 8.0 0.00 0.85 0.85 88 1009.1
20260505231606 49 184 3.0 5.0 0.00 0.85 0.85 87 1008.9
20260505231104 49 128 2.0 3.0 0.00 0.85 0.85 86 1009.0
20260505230602 49 196 2.0 3.0 0.00 0.85 0.85 86 1009.2
20260505230058 49 213 0.0 1.0 0.00 0.85 0.85 85 1009.0
20260505225555 49 341 5.0 7.0 0.00 0.85 0.85 85 1009.2
20260505225050 49 301 1.0 1.0 0.00 0.85 0.85 84 1009.0
20260505224548 49 248 1.0 1.0 0.00 0.85 0.85 84 1009.0
20260505224045 49 337 4.0 4.0 0.00 0.85 0.85 84 1009.0
20260505223542 50 283 2.0 4.0 0.00 0.85 0.85 85 1008.7
20260505223038 50 73 0.0 1.0 0.00 0.85 0.85 84 1008.9
20260505222534 50 308 2.0 3.0 0.00 0.85 0.85 84 1008.4
20260505222031 50 207 0.0 1.0 0.00 0.85 0.85 84 1008.4
20260505221528 50 335 3.0 4.0 0.00 0.85 0.85 83 1008.5
20260505221024 50 1 5.0 8.0 0.00 0.85 0.85 84 1008.4
20260505220522 50 60 2.0 4.0 0.00 0.85 0.85 84 1008.4
20260505220020 50 2 6.0 8.0 0.00 0.85 0.85 86 1008.5
20260505215518 50 174 4.0 5.0 0.00 0.85 0.85 85 1008.7
20260505215015 50 57 8.0 11.0 0.00 0.85 0.85 85 1008.7
20260505214513 50 227 3.0 4.0 0.00 0.85 0.85 86 1008.5
20260505214009 50 112 4.0 7.0 0.00 0.85 0.85 86 1008.4
20260505213508 50 305 1.0 1.0 0.00 0.85 0.85 87 1008.4
20260505213004 50 102 2.0 3.0 0.00 0.85 0.85 87 1008.2
20260505212500 50 71 6.0 8.0 0.00 0.85 0.85 85 1008.3
20260505211957 50 262 2.0 3.0 0.00 0.85 0.85 86 1008.3
20260505211454 50 287 4.0 5.0 0.00 0.85 0.85 87 1008.2
20260505210950 50 158 8.0 11.0 0.00 0.85 0.85 88 1008.2
20260505210448 50 43 11.0 15.0 0.00 0.85 0.85 89 1008.4
20260505205944 50 203 2.0 3.0 0.00 0.85 0.85 90 1008.3
20260505205443 50 49 2.0 4.0 0.00 0.85 0.85 90 1008.4
20260505204939 51 35 5.0 7.0 0.00 0.85 0.85 89 1008.3
20260505204437 51 304 4.0 4.0 0.00 0.85 0.85 88 1008.5
20260505203934 51 82 2.0 3.0 0.00 0.85 0.85 88 1008.4
20260505203431 51 322 1.0 3.0 0.00 0.85 0.85 88 1008.5
20260505202927 51 324 5.0 8.0 0.00 0.85 0.85 88 1008.5
20260505202423 51 251 5.0 7.0 0.00 0.85 0.85 88 1008.2
20260505201920 51 189 5.0 5.0 0.00 0.85 0.85 89 1008.0
20260505201417 51 280 5.0 7.0 0.00 0.85 0.85 89 1008.1
20260505200915 51 42 5.0 7.0 0.00 0.85 0.85 90 1008.2
20260505200412 51 18 5.0 7.0 0.00 0.85 0.85 90 1008.3
20260505195907 51 264 5.0 8.0 0.00 0.85 0.85 90 1008.3